Flag for Australia Weather past 2 weeks in Ballarat, Victoria, Australia

Now
33 °F

Chilly.


Feels Like: 28 °F
Forecast: 35 / 65 °F
Wind: 5 mph from North

Location: Sheoaks Aws

Current Time: Sep 22, 2014 at 5:07:55 AM

Latest Report: Sep 22, 2014 at 3:00 AM


Visibility: N/A

Pressure: 30.37 "Hg

Humidity: 98%

Dew point: 32 °F

Location of BallaratLocation

Historic Weather in Ballarat — Graph

°F

Ballarat temperature yesterday

Maximum temperature yesterday: 59 °F (at 2:00 PM)
Minimum temperature yesterday: 38 °F (at 11:00 PM)
Average temperature yesterday: 49 °F

Past Weeks' High & Low Weather Summary

 TemperatureHumidityPressure
High66 °F (Sep 8, 8:00 PM)100% (Sep 15, 11:00 PM)30.48 "Hg (Sep 15, 11:00 PM)
Low33 °F (Sep 22, 3:00 AM)40% (Sep 8, 8:00 PM)29.59 "Hg (Sep 9, 3:00 PM)
Average51 °F77%30.10 "Hg
* Reported Sep 7 3:00 AM — Sep 22 3:00 AM, Ballarat, Weather by CustomWeather, © 2014

Note: Actual official high and low records may vary slightly from our data, if they occured in-between our weather recording intervals... More about our weather records

Advertising

Ballarat weather history for previous 24 hours

 ConditionsComfort  
Time TempWeatherWind HumidityBarometerVisibility
3:00 AM
Sep 22
33 °FChilly.5 mph98%30.37 "HgN/A
2:00 AM35 °FChilly.3 mph97%30.39 "HgN/A
12:00 AM37 °FChilly.6 mph97%30.41 "HgN/A
11:00 PM
Sep 21
38 °FChilly.6 mph95%30.42 "HgN/A
9:00 PM44 °FQuite cool.5 mph89%30.44 "HgN/A
8:00 PM45 °FCool.6 mph84%30.44 "HgN/A
6:00 PM52 °FCool.8 mph72%30.41 "HgN/A
5:00 PM57 °FRefreshingly cool.7 mph59%30.40 "HgN/A
3:00 PM59 °FRefreshingly cool.7 mph54%30.41 "HgN/A
2:00 PM59 °FRefreshingly cool.8 mph57%30.42 "HgN/A
12:00 PM57 °FCool.7 mph61%30.47 "HgN/A
11:00 AM56 °FCool.10 mph61%30.48 "HgN/A
9:00 AM53 °FCool.7 mph65%30.47 "HgN/A
8:00 AM46 °FCool.2 mph99%30.46 "HgN/A
6:00 AM41 °FQuite cool.No wind98%30.43 "HgN/A
5:00 AM42 °FQuite cool.No wind98%30.42 "HgN/A
Weather by CustomWeather, © 2014

See weather overviewHow to use our weather pages